Year,Month,Day,Hour,Minute,Value (Times are PST for temperature in C)
2018,08,20,00,00,15.20
2018,08,20,00,01,15.20
2018,08,20,00,02,15.20
2018,08,20,00,03,15.20
2018,08,20,00,04,15.20
2018,08,20,00,05,15.20
2018,08,20,00,06,15.10
2018,08,20,00,07,15.10
2018,08,20,00,08,15.10
2018,08,20,00,09,15.10
2018,08,20,00,10,15.10
2018,08,20,00,11,15.10
2018,08,20,00,12,15.10
2018,08,20,00,13,15.00
2018,08,20,00,14,15.00
2018,08,20,00,15,15.00
2018,08,20,00,16,15.00
2018,08,20,00,17,15.00
2018,08,20,00,18,15.00
2018,08,20,00,19,15.00
2018,08,20,00,20,15.00
2018,08,20,00,21,15.00
2018,08,20,00,22,15.00
2018,08,20,00,23,15.00
2018,08,20,00,24,15.00
2018,08,20,00,25,15.00
2018,08,20,00,26,15.00
2018,08,20,00,27,15.00
2018,08,20,00,28,15.00
2018,08,20,00,29,15.00
2018,08,20,00,30,15.00
2018,08,20,00,31,15.00
2018,08,20,00,32,15.00
2018,08,20,00,33,15.00
2018,08,20,00,34,15.00
2018,08,20,00,35,15.00
2018,08,20,00,36,15.00
2018,08,20,00,37,15.00
2018,08,20,00,38,15.00
2018,08,20,00,39,15.00
2018,08,20,00,40,14.90
2018,08,20,00,41,14.90
2018,08,20,00,42,14.90
2018,08,20,00,43,14.90
2018,08,20,00,44,14.90
2018,08,20,00,45,14.90
2018,08,20,00,46,14.80
2018,08,20,00,47,14.80
2018,08,20,00,48,14.80
2018,08,20,00,49,14.80
2018,08,20,00,50,14.80
2018,08,20,00,51,14.80
2018,08,20,00,52,14.80
2018,08,20,00,53,14.80
2018,08,20,00,54,14.80
2018,08,20,00,55,14.80
2018,08,20,00,56,14.80
2018,08,20,00,57,14.80
2018,08,20,00,58,14.80
2018,08,20,00,59,14.80
2018,08,20,01,00,14.80
2018,08,20,01,01,14.70
2018,08,20,01,02,14.70
2018,08,20,01,03,14.70
2018,08,20,01,04,14.70
2018,08,20,01,05,14.70
2018,08,20,01,06,14.70
2018,08,20,01,07,14.70
2018,08,20,01,08,14.70
2018,08,20,01,09,14.70
2018,08,20,01,10,14.70
2018,08,20,01,11,14.70
2018,08,20,01,12,14.60
2018,08,20,01,13,14.60
2018,08,20,01,14,14.60
2018,08,20,01,15,14.60
2018,08,20,01,16,14.60
2018,08,20,01,17,14.50
2018,08,20,01,18,14.50
2018,08,20,01,19,14.40
2018,08,20,01,20,14.40
2018,08,20,01,21,14.40
2018,08,20,01,22,14.30
2018,08,20,01,23,14.30
2018,08,20,01,24,14.30
2018,08,20,01,25,14.30
2018,08,20,01,26,14.30
2018,08,20,01,27,14.30
2018,08,20,01,28,14.30
2018,08,20,01,29,14.30
2018,08,20,01,30,14.30
2018,08,20,01,31,14.30
2018,08,20,01,32,14.30
2018,08,20,01,33,14.30
2018,08,20,01,34,14.30
2018,08,20,01,35,14.30
2018,08,20,01,36,14.30
2018,08,20,01,37,14.30
2018,08,20,01,38,14.30
2018,08,20,01,39,14.30
2018,08,20,01,40,14.30
2018,08,20,01,41,14.30
2018,08,20,01,42,14.30
2018,08,20,01,43,14.30
2018,08,20,01,44,14.30
2018,08,20,01,45,14.30
2018,08,20,01,46,14.30
2018,08,20,01,47,14.30
2018,08,20,01,48,14.30
2018,08,20,01,49,14.30
2018,08,20,01,50,14.30
2018,08,20,01,51,14.30
2018,08,20,01,52,14.20
2018,08,20,01,53,14.20
2018,08,20,01,54,14.20
2018,08,20,01,55,14.20
2018,08,20,01,56,14.20
2018,08,20,01,57,14.20
2018,08,20,01,58,14.20
2018,08,20,01,59,14.20
2018,08,20,02,00,14.20
2018,08,20,02,01,14.10
2018,08,20,02,02,14.10
2018,08,20,02,03,14.10
2018,08,20,02,04,14.10
2018,08,20,02,05,14.10
2018,08,20,02,06,14.10
2018,08,20,02,07,14.10
2018,08,20,02,08,14.10
2018,08,20,02,09,14.10
2018,08,20,02,10,14.10
2018,08,20,02,11,14.10
2018,08,20,02,12,14.10
2018,08,20,02,13,14.10
2018,08,20,02,14,14.10
2018,08,20,02,15,14.10
2018,08,20,02,16,14.10
2018,08,20,02,17,14.10
2018,08,20,02,18,14.00
2018,08,20,02,19,14.00
2018,08,20,02,20,14.00
2018,08,20,02,21,14.00
2018,08,20,02,22,13.90
2018,08,20,02,23,13.90
2018,08,20,02,24,13.90
2018,08,20,02,25,13.90
2018,08,20,02,26,13.90
2018,08,20,02,27,13.90
2018,08,20,02,28,13.80
2018,08,20,02,29,13.80
2018,08,20,02,30,13.80
2018,08,20,02,31,13.80
2018,08,20,02,32,13.80
2018,08,20,02,33,13.80
2018,08,20,02,34,13.80
2018,08,20,02,35,13.80
2018,08,20,02,36,13.80
2018,08,20,02,37,13.80
2018,08,20,02,38,13.70
2018,08,20,02,39,13.80
2018,08,20,02,40,13.80
2018,08,20,02,41,13.80
2018,08,20,02,42,13.70
2018,08,20,02,43,13.70
2018,08,20,02,44,13.70
2018,08,20,02,45,13.70
2018,08,20,02,46,13.70
2018,08,20,02,47,13.70
2018,08,20,02,48,13.70
2018,08,20,02,49,13.70
2018,08,20,02,50,13.70
2018,08,20,02,51,13.70
2018,08,20,02,52,13.70
2018,08,20,02,53,13.70
2018,08,20,02,54,13.70
2018,08,20,02,55,13.70
2018,08,20,02,56,13.70
2018,08,20,02,57,13.70
2018,08,20,02,58,13.70
2018,08,20,02,59,13.70
2018,08,20,03,00,13.70
2018,08,20,03,01,13.70
2018,08,20,03,02,13.70
2018,08,20,03,03,13.60
2018,08,20,03,04,13.60
2018,08,20,03,05,13.60
2018,08,20,03,06,13.60
2018,08,20,03,07,13.60
2018,08,20,03,08,13.60
2018,08,20,03,09,13.60
2018,08,20,03,10,13.50
2018,08,20,03,11,13.50
2018,08,20,03,12,13.40
2018,08,20,03,13,13.40
2018,08,20,03,14,13.40
2018,08,20,03,15,13.30
2018,08,20,03,16,13.30
2018,08,20,03,17,13.30
2018,08,20,03,18,13.30
2018,08,20,03,19,13.30
2018,08,20,03,20,13.30
2018,08,20,03,21,13.30
2018,08,20,03,22,13.30
2018,08,20,03,23,13.30
2018,08,20,03,24,13.30
2018,08,20,03,25,13.30
2018,08,20,03,26,13.30
2018,08,20,03,27,13.40
2018,08,20,03,28,13.40
2018,08,20,03,29,13.40
2018,08,20,03,30,13.40
2018,08,20,03,31,13.40
2018,08,20,03,32,13.40
2018,08,20,03,33,13.40
2018,08,20,03,34,13.40
2018,08,20,03,35,13.40
2018,08,20,03,36,13.30
2018,08,20,03,37,13.30
2018,08,20,03,38,13.30
2018,08,20,03,39,13.30
2018,08,20,03,40,13.30
2018,08,20,03,41,13.30
2018,08,20,03,42,13.30
2018,08,20,03,43,13.30
2018,08,20,03,44,13.30
2018,08,20,03,45,13.30
2018,08,20,03,46,13.30
2018,08,20,03,47,13.20
2018,08,20,03,48,13.20
2018,08,20,03,49,13.20
2018,08,20,03,50,13.10
2018,08,20,03,51,13.10
2018,08,20,03,52,13.10
2018,08,20,03,53,13.10
2018,08,20,03,54,13.10
2018,08,20,03,55,13.10
2018,08,20,03,56,13.10
2018,08,20,03,57,13.10
2018,08,20,03,58,13.10
2018,08,20,03,59,13.00
2018,08,20,04,00,13.00
2018,08,20,04,01,13.00
2018,08,20,04,02,13.00
2018,08,20,04,03,13.00
2018,08,20,04,04,13.00
2018,08,20,04,05,13.00
2018,08,20,04,06,13.00
2018,08,20,04,07,13.00
2018,08,20,04,08,13.00
2018,08,20,04,09,13.00
2018,08,20,04,10,13.00
2018,08,20,04,11,13.00
2018,08,20,04,12,13.10
2018,08,20,04,13,13.10
2018,08,20,04,14,13.00
2018,08,20,04,15,13.00
2018,08,20,04,16,13.00
2018,08,20,04,17,13.00
2018,08,20,04,18,13.00
2018,08,20,04,19,13.00
2018,08,20,04,20,13.00
2018,08,20,04,21,13.00
2018,08,20,04,22,13.00
2018,08,20,04,23,13.00
2018,08,20,04,24,13.00
2018,08,20,04,25,13.10
2018,08,20,04,26,13.10
2018,08,20,04,27,13.10
2018,08,20,04,28,13.10
2018,08,20,04,29,13.20
2018,08,20,04,30,13.20
2018,08,20,04,31,13.20
2018,08,20,04,32,13.30
2018,08,20,04,33,13.30
2018,08,20,04,34,13.30
2018,08,20,04,35,13.40
2018,08,20,04,36,13.40
2018,08,20,04,37,13.40
2018,08,20,04,38,13.40
2018,08,20,04,39,13.40
2018,08,20,04,40,13.30
2018,08,20,04,41,13.30
2018,08,20,04,42,13.30
2018,08,20,04,43,13.30
2018,08,20,04,44,13.30
2018,08,20,04,45,13.30
2018,08,20,04,46,13.30
2018,08,20,04,47,13.30
2018,08,20,04,48,13.30
2018,08,20,04,49,13.30
2018,08,20,04,50,13.30
2018,08,20,04,51,13.30
2018,08,20,04,52,13.30
2018,08,20,04,53,13.30
2018,08,20,04,54,13.30
2018,08,20,04,55,13.30
2018,08,20,04,56,13.30
2018,08,20,04,57,13.30
2018,08,20,04,58,13.30
2018,08,20,04,59,13.30
2018,08,20,05,00,13.30
2018,08,20,05,01,13.30
2018,08,20,05,02,13.30
2018,08,20,05,03,13.30
2018,08,20,05,04,13.30
2018,08,20,05,05,13.30
2018,08,20,05,06,13.30
2018,08,20,05,07,13.30
2018,08,20,05,08,13.30
2018,08,20,05,09,13.30
2018,08,20,05,10,13.30
2018,08,20,05,11,13.30
2018,08,20,05,12,13.30
2018,08,20,05,13,13.30
2018,08,20,05,14,13.30
2018,08,20,05,15,13.30
2018,08,20,05,16,13.30
2018,08,20,05,17,13.20
2018,08,20,05,18,13.20
2018,08,20,05,19,13.20
2018,08,20,05,20,13.20
2018,08,20,05,21,13.20
2018,08,20,05,22,13.20
2018,08,20,05,23,13.20
2018,08,20,05,24,13.20
2018,08,20,05,25,13.20
2018,08,20,05,26,13.20
2018,08,20,05,27,13.20
2018,08,20,05,28,13.20
2018,08,20,05,29,13.10
2018,08,20,05,30,13.10
2018,08,20,05,31,13.10
2018,08,20,05,32,13.10
2018,08,20,05,33,13.10
2018,08,20,05,34,13.10
2018,08,20,05,35,13.10
2018,08,20,05,36,13.10
2018,08,20,05,37,13.10
2018,08,20,05,38,13.10
2018,08,20,05,39,13.10
2018,08,20,05,40,13.10
2018,08,20,05,41,13.10
2018,08,20,05,42,13.10
2018,08,20,05,43,13.10
2018,08,20,05,44,13.10
2018,08,20,05,45,13.10
2018,08,20,05,46,13.10
2018,08,20,05,47,13.10
2018,08,20,05,48,13.10
2018,08,20,05,49,13.10
2018,08,20,05,50,13.10
2018,08,20,05,51,13.10
2018,08,20,05,52,13.10
2018,08,20,05,53,13.10
2018,08,20,05,54,13.10
2018,08,20,05,55,13.00
2018,08,20,05,56,13.00
2018,08,20,05,57,13.00
2018,08,20,05,58,12.90
2018,08,20,05,59,12.90
2018,08,20,06,00,12.90
2018,08,20,06,01,12.90
2018,08,20,06,02,12.90
2018,08,20,06,03,12.90
2018,08,20,06,04,12.90
2018,08,20,06,05,13.00
2018,08,20,06,06,13.00
2018,08,20,06,07,13.00
2018,08,20,06,08,13.00
2018,08,20,06,09,13.10
2018,08,20,06,10,13.10
2018,08,20,06,11,13.10
2018,08,20,06,12,13.10
2018,08,20,06,13,13.10
2018,08,20,06,14,13.10
2018,08,20,06,15,13.10
2018,08,20,06,16,13.10
2018,08,20,06,17,13.10
2018,08,20,06,18,13.10
2018,08,20,06,19,13.10
2018,08,20,06,20,13.10
2018,08,20,06,21,13.10
2018,08,20,06,22,13.10
2018,08,20,06,23,13.10
2018,08,20,06,24,13.10
2018,08,20,06,25,13.10
2018,08,20,06,26,13.00
2018,08,20,06,27,13.10
2018,08,20,06,28,13.10
2018,08,20,06,29,13.10
2018,08,20,06,30,13.10
2018,08,20,06,31,13.10
2018,08,20,06,32,13.00
2018,08,20,06,33,13.00
2018,08,20,06,34,13.00
2018,08,20,06,35,13.00
2018,08,20,06,36,13.00
2018,08,20,06,37,13.00
2018,08,20,06,38,13.00
2018,08,20,06,39,13.00
2018,08,20,06,40,13.00
2018,08,20,06,41,13.00
2018,08,20,06,42,12.90
2018,08,20,06,43,12.90
2018,08,20,06,44,13.00
2018,08,20,06,45,13.00
2018,08,20,06,46,13.00
2018,08,20,06,47,13.00
2018,08,20,06,48,13.00
2018,08,20,06,49,13.00
2018,08,20,06,50,12.90
2018,08,20,06,51,12.90
2018,08,20,06,52,12.90
2018,08,20,06,53,12.80
2018,08,20,06,54,12.80
2018,08,20,06,55,12.80
2018,08,20,06,56,12.80
2018,08,20,06,57,12.80
2018,08,20,06,58,12.80
2018,08,20,06,59,12.80
2018,08,20,07,00,12.80
2018,08,20,07,01,12.70
2018,08,20,07,02,12.80
2018,08,20,07,03,12.80
2018,08,20,07,04,12.80
2018,08,20,07,05,12.80
2018,08,20,07,06,12.80
2018,08,20,07,07,12.80
2018,08,20,07,08,12.80
2018,08,20,07,09,12.90
2018,08,20,07,10,12.90
2018,08,20,07,11,12.90
2018,08,20,07,12,12.90
2018,08,20,07,13,13.00
2018,08,20,07,14,13.00
2018,08,20,07,15,13.00
2018,08,20,07,16,12.90
2018,08,20,07,17,12.90
2018,08,20,07,18,12.90
2018,08,20,07,19,12.90
2018,08,20,07,20,13.00
2018,08,20,07,21,13.00
2018,08,20,07,22,13.00
2018,08,20,07,23,13.00
2018,08,20,07,24,13.00
2018,08,20,07,25,13.00
2018,08,20,07,26,13.00
2018,08,20,07,27,13.10
2018,08,20,07,28,13.10
2018,08,20,07,29,13.10
2018,08,20,07,30,13.10
2018,08,20,07,31,13.10
2018,08,20,07,32,13.20
2018,08,20,07,33,13.20
2018,08,20,07,34,13.20
2018,08,20,07,35,13.20
2018,08,20,07,36,13.30
2018,08,20,07,37,13.30
2018,08,20,07,38,13.30
2018,08,20,07,39,13.30
2018,08,20,07,40,13.30
2018,08,20,07,41,13.40
2018,08,20,07,42,13.40
2018,08,20,07,43,13.40
2018,08,20,07,44,13.50
2018,08,20,07,45,13.50
2018,08,20,07,46,13.50
2018,08,20,07,47,13.60
2018,08,20,07,48,13.60
2018,08,20,07,49,13.60
2018,08,20,07,50,13.60
2018,08,20,07,51,13.60
2018,08,20,07,52,13.70
2018,08,20,07,53,13.70
2018,08,20,07,54,13.70
2018,08,20,07,55,13.70
2018,08,20,07,56,13.70
2018,08,20,07,57,13.70
2018,08,20,07,58,13.70
2018,08,20,07,59,13.70
2018,08,20,08,00,13.70
2018,08,20,08,01,13.70
2018,08,20,08,02,13.80
2018,08,20,08,03,13.80
2018,08,20,08,04,13.80
2018,08,20,08,05,13.80
2018,08,20,08,06,13.90
2018,08,20,08,07,13.90
2018,08,20,08,08,13.90
2018,08,20,08,09,13.90
2018,08,20,08,10,13.90
2018,08,20,08,11,14.00
2018,08,20,08,12,14.00
2018,08,20,08,13,14.00
2018,08,20,08,14,14.10
2018,08,20,08,15,14.10
2018,08,20,08,16,14.10
2018,08,20,08,17,14.10
2018,08,20,08,18,14.20
2018,08,20,08,19,14.20
2018,08,20,08,20,14.20
2018,08,20,08,21,14.20
2018,08,20,08,22,14.20
2018,08,20,08,23,14.30
2018,08,20,08,24,14.30
2018,08,20,08,25,14.30
2018,08,20,08,26,14.30
2018,08,20,08,27,14.30
2018,08,20,08,28,14.40
2018,08,20,08,29,14.40
2018,08,20,08,30,14.40
2018,08,20,08,31,14.50
2018,08,20,08,32,14.50
2018,08,20,08,33,14.60
2018,08,20,08,34,14.60
2018,08,20,08,35,14.70
2018,08,20,08,36,14.70
2018,08,20,08,37,14.80
2018,08,20,08,38,14.80
2018,08,20,08,39,14.90
2018,08,20,08,40,14.90
2018,08,20,08,41,15.00
2018,08,20,08,42,15.00
2018,08,20,08,43,15.00
2018,08,20,08,44,15.00
2018,08,20,08,45,15.10
2018,08,20,08,46,15.20
2018,08,20,08,47,15.20
2018,08,20,08,48,15.30
2018,08,20,08,49,15.30
2018,08,20,08,50,15.40
2018,08,20,08,51,15.50
2018,08,20,08,52,15.50
2018,08,20,08,53,15.60
2018,08,20,08,54,15.60
2018,08,20,08,55,15.70
2018,08,20,08,56,15.80
2018,08,20,08,57,15.80
2018,08,20,08,58,15.90
2018,08,20,08,59,15.90
2018,08,20,09,00,16.00
2018,08,20,09,01,16.00
2018,08,20,09,02,16.10
2018,08,20,09,03,16.20
2018,08,20,09,04,16.30
2018,08,20,09,05,16.30
2018,08,20,09,06,16.40
2018,08,20,09,07,16.40
2018,08,20,09,08,16.50
2018,08,20,09,09,16.50
2018,08,20,09,10,16.60
2018,08,20,09,11,16.60
2018,08,20,09,12,16.70
2018,08,20,09,13,16.70
2018,08,20,09,14,16.80
2018,08,20,09,15,16.90
2018,08,20,09,16,16.90
2018,08,20,09,17,17.00
2018,08,20,09,18,17.00
2018,08,20,09,19,17.10
2018,08,20,09,20,17.20
2018,08,20,09,21,17.20
2018,08,20,09,22,17.30
2018,08,20,09,23,17.30
2018,08,20,09,24,17.40
2018,08,20,09,25,17.50
2018,08,20,09,26,17.50
2018,08,20,09,27,17.60
2018,08,20,09,28,17.70
2018,08,20,09,29,17.80
2018,08,20,09,30,17.80
2018,08,20,09,31,17.90
2018,08,20,09,32,18.00
2018,08,20,09,33,18.00
2018,08,20,09,34,18.00
2018,08,20,09,35,18.10
2018,08,20,09,36,18.20
2018,08,20,09,37,18.20
2018,08,20,09,38,18.30
2018,08,20,09,39,18.30
2018,08,20,09,40,18.40
2018,08,20,09,41,18.40
2018,08,20,09,42,18.50
2018,08,20,09,43,18.60
2018,08,20,09,44,18.60
2018,08,20,09,45,18.70
2018,08,20,09,46,18.80
2018,08,20,09,47,18.80
2018,08,20,09,48,18.90
2018,08,20,09,49,19.00
2018,08,20,09,50,19.10
2018,08,20,09,51,19.10
2018,08,20,09,52,19.20
2018,08,20,09,53,19.30
2018,08,20,09,54,19.30
2018,08,20,09,55,19.40
2018,08,20,09,56,19.50
2018,08,20,09,57,19.50
2018,08,20,09,58,19.50
2018,08,20,09,59,19.60
2018,08,20,10,00,19.60
2018,08,20,10,01,19.70
2018,08,20,10,02,19.70
2018,08,20,10,03,19.80
2018,08,20,10,04,19.80
2018,08,20,10,05,19.90
2018,08,20,10,06,20.00
2018,08,20,10,07,20.10
2018,08,20,10,08,20.10
2018,08,20,10,09,20.20
2018,08,20,10,10,20.20
2018,08,20,10,11,20.30
2018,08,20,10,12,20.30
2018,08,20,10,13,20.40
2018,08,20,10,14,20.50
2018,08,20,10,15,20.60
2018,08,20,10,16,20.60
2018,08,20,10,17,20.70
2018,08,20,10,18,20.70
2018,08,20,10,19,20.70
2018,08,20,10,20,20.80
2018,08,20,10,21,20.80
2018,08,20,10,22,20.90
2018,08,20,10,23,20.90
2018,08,20,10,24,21.00
2018,08,20,10,25,21.00
2018,08,20,10,26,21.10
2018,08,20,10,27,21.20
2018,08,20,10,28,21.20
2018,08,20,10,29,21.30
2018,08,20,10,30,21.40
2018,08,20,10,31,21.50
2018,08,20,10,32,21.50
2018,08,20,10,33,21.60
2018,08,20,10,34,21.70
2018,08,20,10,35,21.70
2018,08,20,10,36,21.80
2018,08,20,10,37,21.80
2018,08,20,10,38,21.90
2018,08,20,10,39,22.00
2018,08,20,10,40,22.10
2018,08,20,10,41,22.20
2018,08,20,10,42,22.30
2018,08,20,10,43,22.40
2018,08,20,10,44,22.50
2018,08,20,10,45,22.60
2018,08,20,10,46,22.70
2018,08,20,10,47,22.80
2018,08,20,10,48,22.90
2018,08,20,10,49,23.00
2018,08,20,10,50,23.10
2018,08,20,10,51,23.20
2018,08,20,10,52,23.30
2018,08,20,10,53,23.30
2018,08,20,10,54,23.40
2018,08,20,10,55,23.50
2018,08,20,10,56,23.60
2018,08,20,10,57,23.80
2018,08,20,10,58,23.90
2018,08,20,10,59,24.00
2018,08,20,11,00,24.10
2018,08,20,11,01,24.20
2018,08,20,11,02,24.30
2018,08,20,11,03,24.30
2018,08,20,11,04,24.40
2018,08,20,11,05,24.50
2018,08,20,11,06,24.60
2018,08,20,11,07,24.70
2018,08,20,11,08,24.80
2018,08,20,11,09,24.80
2018,08,20,11,10,24.90
2018,08,20,11,11,25.00
2018,08,20,11,12,25.10
2018,08,20,11,13,25.20
2018,08,20,11,14,25.20
2018,08,20,11,15,25.30
2018,08,20,11,16,25.40
2018,08,20,11,17,25.40
2018,08,20,11,18,25.50
2018,08,20,11,19,25.60
2018,08,20,11,20,25.60
2018,08,20,11,21,25.60
2018,08,20,11,22,25.70
2018,08,20,11,23,25.70
2018,08,20,11,24,25.80
2018,08,20,11,25,25.80
2018,08,20,11,26,25.90
2018,08,20,11,27,25.90
2018,08,20,11,28,25.90
2018,08,20,11,29,25.90
2018,08,20,11,30,26.00
2018,08,20,11,31,26.10
2018,08,20,11,32,26.20
2018,08,20,11,33,26.20
2018,08,20,11,34,26.30
2018,08,20,11,35,26.30
2018,08,20,11,36,26.40
2018,08,20,11,37,26.40
2018,08,20,11,38,26.40
2018,08,20,11,39,26.50
2018,08,20,11,40,26.50
2018,08,20,11,41,26.60
2018,08,20,11,42,26.70
2018,08,20,11,43,26.70
2018,08,20,11,44,26.80
2018,08,20,11,45,26.80
2018,08,20,11,46,26.90
2018,08,20,11,47,27.00
2018,08,20,11,48,27.00
2018,08,20,11,49,27.10
2018,08,20,11,50,27.10
2018,08,20,11,51,27.20
2018,08,20,11,52,27.30
2018,08,20,11,53,27.30
2018,08,20,11,54,27.40
2018,08,20,11,55,27.40
2018,08,20,11,56,27.50
2018,08,20,11,57,27.50
2018,08,20,11,58,27.60
2018,08,20,11,59,27.60
2018,08,20,12,00,27.60
2018,08,20,12,01,27.70
2018,08,20,12,02,27.70
2018,08,20,12,03,27.70
2018,08,20,12,04,27.80
2018,08,20,12,05,27.80
2018,08,20,12,06,27.90
2018,08,20,12,07,28.00
2018,08,20,12,08,28.00
2018,08,20,12,09,28.10
2018,08,20,12,10,28.10
2018,08,20,12,11,28.10
2018,08,20,12,12,28.10
2018,08,20,12,13,28.10
2018,08,20,12,14,28.10
2018,08,20,12,15,28.10
2018,08,20,12,16,28.10
2018,08,20,12,17,28.10
2018,08,20,12,18,28.10
2018,08,20,12,19,28.10
2018,08,20,12,20,28.10
2018,08,20,12,21,28.10
2018,08,20,12,22,28.20
2018,08,20,12,23,28.30
2018,08,20,12,24,28.30
2018,08,20,12,25,28.40
2018,08,20,12,26,28.40
2018,08,20,12,27,28.40
2018,08,20,12,28,28.40
2018,08,20,12,29,28.40
2018,08,20,12,30,28.40
2018,08,20,12,31,28.40
2018,08,20,12,32,28.30
2018,08,20,12,33,28.30
2018,08,20,12,34,28.30
2018,08,20,12,35,28.30
2018,08,20,12,36,28.30
2018,08,20,12,37,28.40
2018,08,20,12,38,28.40
2018,08,20,12,39,28.50
2018,08,20,12,40,28.60
2018,08,20,12,41,28.60
2018,08,20,12,42,28.70
2018,08,20,12,43,28.70
2018,08,20,12,44,28.70
2018,08,20,12,45,28.80
2018,08,20,12,46,28.80
2018,08,20,12,47,28.80
2018,08,20,12,48,28.90
2018,08,20,12,49,28.90
2018,08,20,12,50,28.90
2018,08,20,12,51,29.00
2018,08,20,12,52,29.10
2018,08,20,12,53,29.10
2018,08,20,12,54,29.20
2018,08,20,12,55,29.20
2018,08,20,12,56,29.20
2018,08,20,12,57,29.20
2018,08,20,12,58,29.20
2018,08,20,12,59,29.30
2018,08,20,13,00,29.30
2018,08,20,13,01,29.40
2018,08,20,13,02,29.40
2018,08,20,13,03,29.50
2018,08,20,13,04,29.60
2018,08,20,13,05,29.60
2018,08,20,13,06,29.60
2018,08,20,13,07,29.60
2018,08,20,13,08,29.50
2018,08,20,13,09,29.50
2018,08,20,13,10,29.50
2018,08,20,13,11,29.40
2018,08,20,13,12,29.40
2018,08,20,13,13,29.30
2018,08,20,13,14,29.30
2018,08,20,13,15,29.40
2018,08,20,13,16,29.40
2018,08,20,13,17,29.40
2018,08,20,13,18,29.40
2018,08,20,13,19,29.50
2018,08,20,13,20,29.50
2018,08,20,13,21,29.50
2018,08,20,13,22,29.50
2018,08,20,13,23,29.50
2018,08,20,13,24,29.60
2018,08,20,13,25,29.70
2018,08,20,13,26,29.70
2018,08,20,13,27,29.70
2018,08,20,13,28,29.70
2018,08,20,13,29,29.70
2018,08,20,13,30,29.70
2018,08,20,13,31,29.70
2018,08,20,13,32,29.70
2018,08,20,13,33,29.70
2018,08,20,13,34,29.80
2018,08,20,13,35,29.90
2018,08,20,13,36,29.90
2018,08,20,13,37,30.00
2018,08,20,13,38,30.10
2018,08,20,13,39,30.20
2018,08,20,13,40,30.20
2018,08,20,13,41,30.20
2018,08,20,13,42,30.30
2018,08,20,13,43,30.30
2018,08,20,13,44,30.30
2018,08,20,13,45,30.30
2018,08,20,13,46,30.30
2018,08,20,13,47,30.40
2018,08,20,13,48,30.40
2018,08,20,13,49,30.40
2018,08,20,13,50,30.40
2018,08,20,13,51,30.40
2018,08,20,13,52,30.40
2018,08,20,13,53,30.40
2018,08,20,13,54,30.50
2018,08,20,13,55,30.50
2018,08,20,13,56,30.60
2018,08,20,13,57,30.60
2018,08,20,13,58,30.70
2018,08,20,13,59,30.80
2018,08,20,14,00,30.90
2018,08,20,14,01,31.00
2018,08,20,14,02,31.00
2018,08,20,14,03,31.10
2018,08,20,14,04,31.10
2018,08,20,14,05,31.10
2018,08,20,14,06,31.10
2018,08,20,14,07,31.20
2018,08,20,14,08,31.20
2018,08,20,14,09,31.20
2018,08,20,14,10,31.10
2018,08,20,14,11,31.10
2018,08,20,14,12,31.20
2018,08,20,14,13,31.20
2018,08,20,14,14,31.20
2018,08,20,14,15,31.30
2018,08,20,14,16,31.30
2018,08,20,14,17,31.40
2018,08,20,14,18,31.50
2018,08,20,14,19,31.60
2018,08,20,14,20,31.70
2018,08,20,14,21,31.70
2018,08,20,14,22,31.80
2018,08,20,14,23,31.80
2018,08,20,14,24,31.90
2018,08,20,14,25,32.00
2018,08,20,14,26,32.10
2018,08,20,14,27,32.20
2018,08,20,14,28,32.20
2018,08,20,14,29,32.30
2018,08,20,14,30,32.30
2018,08,20,14,31,32.40
2018,08,20,14,32,32.40
2018,08,20,14,33,32.40
2018,08,20,14,34,32.50
2018,08,20,14,35,32.50
2018,08,20,14,36,32.40
2018,08,20,14,37,32.40
2018,08,20,14,38,32.30
2018,08,20,14,39,32.30
2018,08,20,14,40,32.30
2018,08,20,14,41,32.30
2018,08,20,14,42,32.30
2018,08,20,14,43,32.20
2018,08,20,14,44,32.20
2018,08,20,14,45,32.20
2018,08,20,14,46,32.10
2018,08,20,14,47,32.10
2018,08,20,14,48,32.10
2018,08,20,14,49,32.00
2018,08,20,14,50,32.00
2018,08,20,14,51,32.00
2018,08,20,14,52,32.00
2018,08,20,14,53,32.00
2018,08,20,14,54,32.00
2018,08,20,14,55,32.00
2018,08,20,14,56,32.10
2018,08,20,14,57,32.10
2018,08,20,14,58,32.20
2018,08,20,14,59,32.20
2018,08,20,15,00,32.20
2018,08,20,15,01,32.20
2018,08,20,15,02,32.20
2018,08,20,15,03,32.30
2018,08,20,15,04,32.30
2018,08,20,15,05,32.20
2018,08,20,15,06,32.20
2018,08,20,15,07,32.20
2018,08,20,15,08,32.20
2018,08,20,15,09,32.20
2018,08,20,15,10,32.20
2018,08,20,15,11,32.30
2018,08,20,15,12,32.30
2018,08,20,15,13,32.40
2018,08,20,15,14,32.40
2018,08,20,15,15,32.50
2018,08,20,15,16,32.60
2018,08,20,15,17,32.60
2018,08,20,15,18,32.60
2018,08,20,15,19,32.60
2018,08,20,15,20,32.60
2018,08,20,15,21,32.60
2018,08,20,15,22,32.60
2018,08,20,15,23,32.60
2018,08,20,15,24,32.60
2018,08,20,15,25,32.70
2018,08,20,15,26,32.80
2018,08,20,15,27,32.90
2018,08,20,15,28,32.90
2018,08,20,15,29,32.90
2018,08,20,15,30,32.90
2018,08,20,15,31,32.90
2018,08,20,15,32,32.90
2018,08,20,15,33,32.90
2018,08,20,15,34,32.90
2018,08,20,15,35,32.90
2018,08,20,15,36,32.80
2018,08,20,15,37,32.80
2018,08,20,15,38,32.80
2018,08,20,15,39,32.80
2018,08,20,15,40,32.90
2018,08,20,15,41,32.90
2018,08,20,15,42,33.00
2018,08,20,15,43,33.00
2018,08,20,15,44,33.00
2018,08,20,15,45,33.00
2018,08,20,15,46,33.10
2018,08,20,15,47,33.10
2018,08,20,15,48,33.10
2018,08,20,15,49,33.00
2018,08,20,15,50,33.00
2018,08,20,15,51,32.90
2018,08,20,15,52,32.80
2018,08,20,15,53,32.80
2018,08,20,15,54,32.70
2018,08,20,15,55,32.70
2018,08,20,15,56,32.60
2018,08,20,15,57,32.60
2018,08,20,15,58,32.70
2018,08,20,15,59,32.70
2018,08,20,16,00,32.70
2018,08,20,16,01,32.80
2018,08,20,16,02,32.80
2018,08,20,16,03,32.80
2018,08,20,16,04,32.90
2018,08,20,16,05,32.90
2018,08,20,16,06,32.90
2018,08,20,16,07,32.90
2018,08,20,16,08,32.90
2018,08,20,16,09,32.90
2018,08,20,16,10,32.90
2018,08,20,16,11,32.90
2018,08,20,16,12,32.90
2018,08,20,16,13,32.90
2018,08,20,16,14,32.90
2018,08,20,16,15,32.90
2018,08,20,16,16,32.90
2018,08,20,16,17,32.90
2018,08,20,16,18,33.00
2018,08,20,16,19,33.00
2018,08,20,16,20,32.90
2018,08,20,16,21,32.80
2018,08,20,16,22,32.80
2018,08,20,16,23,32.80
2018,08,20,16,24,32.80
2018,08,20,16,25,32.90
2018,08,20,16,26,32.90
2018,08,20,16,27,32.90
2018,08,20,16,28,32.90
2018,08,20,16,29,32.90
2018,08,20,16,30,32.90
2018,08,20,16,31,32.80
2018,08,20,16,32,32.70
2018,08,20,16,33,32.70
2018,08,20,16,34,32.60
2018,08,20,16,35,32.60
2018,08,20,16,36,32.60
2018,08,20,16,37,32.60
2018,08,20,16,38,32.60
2018,08,20,16,39,32.60
2018,08,20,16,40,32.60
2018,08,20,16,41,32.60
2018,08,20,16,42,32.60
2018,08,20,16,43,32.60
2018,08,20,16,44,32.60
2018,08,20,16,45,32.60
2018,08,20,16,46,32.70
2018,08,20,16,47,32.80
2018,08,20,16,48,32.80
2018,08,20,16,49,32.90
2018,08,20,16,50,33.00
2018,08,20,16,51,33.10
2018,08,20,16,52,33.10
2018,08,20,16,53,33.10
2018,08,20,16,54,33.10
2018,08,20,16,55,33.10
2018,08,20,16,56,33.10
2018,08,20,16,57,33.10
2018,08,20,16,58,33.10
2018,08,20,16,59,33.10
2018,08,20,17,00,33.10
2018,08,20,17,01,33.10
2018,08,20,17,02,33.10
2018,08,20,17,03,33.10
2018,08,20,17,04,33.10
2018,08,20,17,05,33.20
2018,08,20,17,06,33.10
2018,08,20,17,07,33.20
2018,08,20,17,08,33.20
2018,08,20,17,09,33.20
2018,08,20,17,10,33.20
2018,08,20,17,11,33.20
2018,08,20,17,12,33.10
2018,08,20,17,13,33.10
2018,08,20,17,14,33.10
2018,08,20,17,15,33.10
2018,08,20,17,16,33.10
2018,08,20,17,17,33.10
2018,08,20,17,18,33.10
2018,08,20,17,19,33.00